You are here:

home

Questo sito é stato creato esclusivamente per valorizzare il lavoro svolto dall' intero
155° Gruppo E.T.S. del' Aeronautica Militare e non ha nessun fine commerciale ne di lucro. 
Pertanto, l' utilizzo delle foto é consentito solo per uso PRIVATO.

 

 
In alto

LIMS - Piacenza, San Damiano

[source: ADDS]
METAR
LIMS 210555Z 18003KT 0100 R30/0800 R12/0800 FG VV002 04/04 Q1024 RMK VIS MIN 0100 WIND THR30 17003KT RED =
TAF
TAF LIMS 210500Z 2106/2115 VRB03KT 0300 FG BKN001 BECMG 2110/2112 0900 FG BKN003 =
In alto
WEB MASTER
Paolo "paolopaso" Pasotti
______________________________________
Last Update: 25/02/2011
_____________________________________________________________________________________________________________
© 2010 / 2011 - Tutti i diritti riservati
 
 
In alto